Barrow, AK

6:31 PM AKDT on June 17, 2018 (GMT -0800)
Wiley Post-Will Rogers Memorial

Weather History for PABR - November, 2017

Change the Weather History Date:

Tuesday, November 28, 2017

  Actual Average Record
Temperature  
Mean Temperature 7 °F -4 °F  
Max Temperature 13 °F 2 °F 28 °F (1995)
Min Temperature 1 °F -9 °F -38 °F (1948)
Degree Days  
Heating Degree Days 58 69  
Month to date heating degree days 1210 1790  
Since 1 July heating degree days 4710 5813  
Cooling Degree Days 0 0  
Month to date cooling degree days 0 0  
Year to date cooling degree days 0 0  
Moisture  
Dew Point 4 °F    
Average Humidity 86    
Maximum Humidity 92    
Minimum Humidity 83    
Precipitation  
Precipitation 0.01 in 0.01 in 0.25 in (1924)
Month to date precipitation 0.97 0.20  
Year to date precipitation 8.01 4.38  
Snow  
Snow T in 0.10 in 0.90 in (2009)
Month to date snowfall 6.9 5.4  
Since 1 July snowfall 14.8 20.0  
Since 1 September snowfall 14.0 18.9  
Snow Depth 5.00 in    
Sea Level Pressure  
Sea Level Pressure 29.56 in    
Wind  
Wind Speed 19 mph (East)    
Max Wind Speed 26 mph    
Max Gust Speed 31 mph    
Visibility 3 miles    
Events Fog , Snow    
T = Trace of Precipitation, MM = Missing Value Source: NWS Daily Summary

Daily Weather History Graph

Daily Weather History Graph

Search for Another Location

Airport or City:

Astronomy

Dec. 31, 1969 Rise Set
Actual Time Sun does not set Sun does not set
Civil Twilight 10:51 AM AKST 3:38 PM AKST
Nautical Twilight 9:05 AM AKST 5:24 PM AKST
Astronomical Twilight 7:43 AM AKST 6:46 PM AKST
Moon 3:38 PM AKST (11/28) 1:59 AM AKST (11/28)
Length of Visible Light 4h 47m
Length of Day
0h 00m
Waxing Gibbous, 72% of the Moon is Illuminated
Nov 28
Waxing Gibbous
Dec 3
Full
Dec 9
Last Quarter
Dec 17
New
Dec 26
First Quarter

Hourly Weather History & Observations

Time (AKST) Temp. Windchill Dew Point Humidity Pressure Visibility Wind Dir Wind Speed Gust Speed Precip Events Conditions
12:03 AM 8.1 °F -12.2 °F 5.0 °F 87% 29.51 in 2.0 mi ENE 21.9 mph - 0.00 in Snow Light Snow
12:13 AM 8.1 °F -12.6 °F 3.9 °F 83% 29.51 in 1.5 mi East 23.0 mph - 0.00 in Snow Light Snow
12:53 AM 5.0 °F -17.1 °F 1.0 °F 84% 29.52 in 1.2 mi East 24.2 mph - 0.00 in Snow Blowing Snow
1:06 AM 5.0 °F -17.5 °F 1.0 °F 84% 29.52 in 0.5 mi East 25.3 mph 31.1 mph 0.00 in Fog , Snow Light Snow
1:24 AM 5.0 °F -15.2 °F 1.0 °F 84% 29.52 in 1.0 mi East 19.6 mph - 0.00 in   Overcast
1:48 AM 5.0 °F -15.7 °F 1.4 °F 85% 29.52 in 3.0 mi East 20.7 mph - 0.00 in   Overcast
1:53 AM 5.0 °F -15.7 °F 1.0 °F 84% 29.53 in 3.0 mi East 20.7 mph - 0.00 in   Overcast
2:03 AM 5.0 °F -16.7 °F 1.0 °F 84% 29.52 in 1.8 mi ESE 23.0 mph - N/A   Overcast
2:07 AM 3.9 °F -17.6 °F 1.0 °F 88% 29.52 in 0.8 mi ESE 21.9 mph - 0.00 in Snow Light Snow
2:15 AM 3.9 °F -18.5 °F -0.0 °F 84% 29.52 in 0.5 mi ESE 24.2 mph - 0.00 in Fog , Snow Light Snow
2:26 AM 3.9 °F -17.6 °F -0.0 °F 84% 29.52 in 1.0 mi ESE 21.9 mph - 0.00 in   Overcast
2:40 AM 3.0 °F -17.8 °F -0.9 °F 84% 29.53 in 2.5 mi ESE 19.6 mph - 0.00 in   Overcast
2:53 AM 1.9 °F -18.1 °F -0.9 °F 88% 29.54 in 4.0 mi SE 17.3 mph - 0.00 in   Overcast
3:53 AM 1.9 °F -11.8 °F -2.0 °F 83% 29.54 in 10.0 mi ESE 8.1 mph - N/A   Overcast
4:53 AM 1.9 °F -12.9 °F -2.0 °F 83% 29.55 in 7.0 mi ESE 9.2 mph - N/A   Overcast
5:05 AM 1.9 °F -11.8 °F -2.0 °F 83% 29.54 in 1.8 mi ESE 8.1 mph - 0.00 in Snow Light Snow
5:18 AM 1.9 °F -11.8 °F -0.9 °F 88% 29.54 in 0.8 mi East 8.1 mph - 0.01 in Snow Light Snow
5:30 AM 3.9 °F -16.6 °F -0.0 °F 84% 29.53 in 1.0 mi East 19.6 mph - 0.01 in Snow Light Snow
5:35 AM 3.9 °F -18.5 °F -0.0 °F 84% 29.53 in 0.5 mi East 24.2 mph - 0.01 in Fog , Snow Light Snow
5:53 AM 3.9 °F -17.6 °F 1.0 °F 88% 29.54 in 0.5 mi East 21.9 mph - 0.01 in Fog , Snow Light Snow
5:58 AM 3.9 °F -16.6 °F 1.0 °F 88% 29.54 in 0.5 mi East 19.6 mph - 0.00 in Fog , Snow Light Snow
6:09 AM 3.9 °F -16.6 °F -0.0 °F 84% 29.54 in 0.8 mi East 19.6 mph - 0.00 in Snow Light Snow
6:15 AM 3.9 °F -17.1 °F 1.0 °F 88% 29.53 in 0.5 mi East 20.7 mph - 0.00 in Fog , Snow Light Snow
6:21 AM 3.9 °F -17.1 °F -0.0 °F 84% 29.53 in 0.8 mi East 20.7 mph - 0.00 in Snow Light Snow
6:53 AM 3.9 °F -17.1 °F 1.0 °F 88% 29.55 in 1.2 mi East 20.7 mph - 0.00 in   Overcast
7:26 AM 3.9 °F -15.6 °F -0.0 °F 84% 29.54 in 3.0 mi East 17.3 mph - N/A Snow Blowing Snow
7:53 AM 3.9 °F -13.7 °F -0.0 °F 84% 29.55 in 6.0 mi ESE 13.8 mph - N/A Snow Blowing Snow
8:22 AM 3.9 °F -11.3 °F 1.0 °F 88% 29.54 in 1.8 mi ESE 10.4 mph - 0.00 in Snow Light Snow
8:32 AM 3.9 °F -10.4 °F 1.0 °F 88% 29.54 in 3.0 mi ESE 9.2 mph - 0.00 in   Overcast
8:34 AM 3.9 °F -11.3 °F 1.0 °F 88% 29.54 in 3.0 mi ESE 10.4 mph - 0.00 in   Overcast
8:42 AM 5.0 °F -10.8 °F 1.0 °F 84% 29.55 in 1.2 mi ESE 11.5 mph - 0.00 in Snow Light Snow
8:50 AM 3.2 °F -13.1 °F 1.4 °F 92% 29.55 in 1.2 mi SE 11.5 mph - 0.00 in Snow Light Snow
8:53 AM 3.9 °F -12.2 °F 1.0 °F 88% 29.55 in 1.5 mi SE 11.5 mph - 0.00 in Snow Light Snow
8:59 AM 3.9 °F -12.2 °F -0.0 °F 84% 29.55 in 3.0 mi SE 11.5 mph - 0.00 in   Overcast
9:37 AM 3.9 °F -11.3 °F 1.0 °F 88% 29.55 in 7.0 mi ESE 10.4 mph - 0.00 in   Overcast
9:53 AM 3.9 °F -10.4 °F 1.0 °F 88% 29.56 in 3.0 mi ESE 9.2 mph - 0.00 in   Overcast
10:28 AM 5.0 °F -6.9 °F 1.9 °F 87% 29.56 in 2.5 mi ESE 6.9 mph - N/A   Overcast
10:41 AM 9.0 °F -11.4 °F 5.0 °F 84% 29.56 in 1.0 mi East 23.0 mph 26.5 mph 0.00 in   Overcast
10:49 AM 8.6 °F -11.9 °F 6.8 °F 92% 29.56 in 0.8 mi East 23.0 mph - 0.00 in Snow Blowing Snow
10:53 AM 9.0 °F -11.8 °F 6.1 °F 88% 29.57 in 0.8 mi East 24.2 mph - 0.00 in Snow Blowing Snow
10:57 AM 9.0 °F -11.0 °F 6.1 °F 88% 29.56 in 1.0 mi East 21.9 mph - N/A Snow Blowing Snow
11:53 AM 10.9 °F -7.5 °F 7.0 °F 84% 29.58 in 1.2 mi East 19.6 mph - 0.00 in Snow Light Snow
12:16 PM 10.9 °F -6.5 °F 8.1 °F 88% 29.57 in 1.2 mi East 17.3 mph - 0.00 in Snow Light Snow
12:39 PM 10.9 °F -8.3 °F 7.0 °F 84% 29.58 in 0.8 mi East 21.9 mph - 0.00 in Snow Light Snow
12:49 PM 10.4 °F -9.5 °F 8.6 °F 92% 29.58 in 1.0 mi East 23.0 mph - 0.00 in Snow Light Snow
12:53 PM 10.0 °F -10.4 °F 7.0 °F 87% 29.58 in 0.8 mi East 24.2 mph - 0.00 in Snow Light Snow
1:09 PM 10.0 °F -9.5 °F 7.0 °F 87% 29.58 in 0.5 mi East 21.9 mph - 0.00 in Fog , Snow Snow
1:43 PM 9.0 °F -12.6 °F 6.1 °F 88% 29.58 in 0.2 mi ENE 26.5 mph - 0.00 in Fog , Snow Heavy Snow
1:53 PM 9.0 °F -12.2 °F 6.1 °F 88% 29.60 in 0.2 mi East 25.3 mph - 0.00 in Fog , Snow Heavy Snow
2:09 PM 9.0 °F -12.6 °F 5.0 °F 84% 29.60 in 0.5 mi ENE 26.5 mph - 0.00 in Fog , Snow Blowing Snow
2:44 PM 8.1 °F -11.7 °F 5.0 °F 87% 29.59 in 2.0 mi ENE 20.7 mph - 0.00 in Fog , Snow Blowing Snow
2:53 PM 8.1 °F -11.7 °F 3.9 °F 83% 29.60 in 4.0 mi ENE 20.7 mph - 0.00 in Fog , Snow Blowing Snow
3:06 PM 7.0 °F -13.1 °F 3.9 °F 87% 29.60 in 5.0 mi ENE 20.7 mph - N/A Fog , Snow Blowing Snow
3:53 PM 7.0 °F -12.6 °F 3.9 °F 87% 29.60 in 6.0 mi ENE 19.6 mph - N/A Fog , Snow Blowing Snow
4:53 PM 8.1 °F -10.7 °F 3.9 °F 83% 29.61 in 8.0 mi ENE 18.4 mph - N/A   Clear
5:53 PM 9.0 °F -9.5 °F 6.1 °F 88% 29.61 in 6.0 mi ENE 18.4 mph - N/A   Clear
6:53 PM 10.0 °F -7.1 °F 7.0 °F 87% 29.61 in 10.0 mi NE 16.1 mph - N/A   Scattered Clouds
7:53 PM 10.9 °F -7.0 °F 8.1 °F 88% 29.62 in 10.0 mi NE 18.4 mph - N/A   Overcast
8:29 PM 10.9 °F -5.9 °F 8.1 °F 88% 29.60 in 10.0 mi NE 16.1 mph - N/A   Overcast
8:53 PM 12.0 °F -6.5 °F 9.0 °F 88% 29.61 in 8.0 mi NE 20.7 mph - N/A   Overcast
9:15 PM 12.9 °F -4.9 °F 9.0 °F 84% 29.60 in 7.0 mi NE 19.6 mph - N/A   Overcast
9:53 PM 12.9 °F -5.3 °F 10.0 °F 88% 29.60 in 4.0 mi NE 20.7 mph - N/A   Overcast
9:59 PM 12.9 °F -5.3 °F 10.0 °F 88% 29.60 in 2.5 mi NE 20.7 mph - 0.00 in Snow Light Snow
10:07 PM 12.9 °F -5.7 °F 10.0 °F 88% 29.60 in 2.0 mi NE 21.9 mph - 0.00 in Snow Light Snow
10:21 PM 12.9 °F -5.7 °F 10.0 °F 88% 29.60 in 1.5 mi NE 21.9 mph - 0.00 in Snow Light Snow
10:53 PM 12.0 °F -7.7 °F 9.0 °F 88% 29.60 in 1.0 mi NE 24.2 mph 29.9 mph 0.00 in Snow Light Snow
11:28 PM 10.9 °F -8.3 °F 8.1 °F 88% 29.60 in 2.5 mi NE 21.9 mph - 0.00 in Snow Light Snow
11:53 PM 10.9 °F -8.8 °F 7.0 °F 84% 29.61 in 2.5 mi ENE 23.0 mph - 0.00 in Snow Blowing Snow